This is the latest recevied weather packets stored in our database for station/object KC3WWU. If no packets are shown the sender has not sent any weather packets the latest 10 day(s).
| Time | Temp. | Humidity | Pressure | Rain* | Wind** | Luminosity | Snow |
|---|---|---|---|---|---|---|---|
| 1777390602 | 9.44° C | 95% | 1014.2 hPa | 0 mm | - | 65 W/m² | - |
| 1777390298 | 9.44° C | 94% | 1014.4 hPa | 0 mm | - | 58 W/m² | - |
| 1777389993 | 9.44° C | 93% | 1014.3 hPa | 0 mm | - | 63 W/m² | - |
| 1777389691 | 9.44° C | 92% | 1014 hPa | 0 mm | - | 67 W/m² | - |
| 1777389388 | 9.44° C | 92% | 1014.2 hPa | 0 mm | - | 73 W/m² | - |
| 1777389086 | 9.44° C | 93% | 1014.1 hPa | 0 mm | - | 58 W/m² | - |
| 1777388783 | 9.44° C | 92% | 1014.1 hPa | 0 mm | - | 62 W/m² | - |
| 1777388480 | 9.44° C | 92% | 1014 hPa | 0 mm | - | 57 W/m² | - |
| 1777388180 | 9.44° C | 93% | 1014.2 hPa | 0 mm | - | 60 W/m² | - |
| 1777387876 | 9.44° C | 91% | 1014.1 hPa | 0 mm | - | 66 W/m² | - |
| 1777387573 | 9.44° C | 93% | 1014.1 hPa | 0 mm | - | 63 W/m² | - |
| 1777387268 | 9.44° C | 93% | 1014.1 hPa | 0 mm | - | 70 W/m² | - |
| 1777386963 | 9.44° C | 92% | 1014.3 hPa | 0 mm | - | 73 W/m² | - |
| 1777386661 | 9.44° C | 94% | 1014.2 hPa | 0 mm | - | 74 W/m² | - |
| 1777386357 | 9.44° C | 94% | 1014.4 hPa | 0 mm | - | 69 W/m² | - |
| 1777386055 | 9.44° C | 94% | 1014.5 hPa | 0 mm | - | 77 W/m² | - |
| 1777385751 | 8.89° C | 94% | 1014 hPa | 0 mm | - | 71 W/m² | - |
| 1777385449 | 9.44° C | 93% | 1014 hPa | 0 mm | - | 62 W/m² | - |
| 1777385144 | 8.89° C | 94% | 1014 hPa | 0 mm | - | 77 W/m² | - |
| 1777384841 | 8.89° C | 94% | 1014.4 hPa | 0 mm | - | 59 W/m² | - |
| 1777384538 | 8.89° C | 94% | 1014.2 hPa | 0 mm | - | 89 W/m² | - |
| 1777384233 | 8.89° C | 93% | 1014.2 hPa | 0 mm | - | 103 W/m² | - |
| 1777383929 | 8.89° C | 93% | 1014.4 hPa | 0 mm | - | 67 W/m² | - |
| 1777383625 | 8.89° C | 95% | 1014.3 hPa | 0 mm | - | 100 W/m² | - |
| 1777383321 | 8.89° C | 95% | 1014.2 hPa | 0 mm | - | 99 W/m² | - |
* Rain latest hour (hover to see other rain measurements)
** Current wind speed in m/s (hover to see current wind gust speed)